Wind_Speed
28 28 28 28 28 28 29 29 29 29 29 29 29 28 29 29 29 28 28 28 28 28 28 28 28 28 28 29 29 30 31 33 33 34 34 34 33 32
27 28 28 28 28 28 28 29 29 29 29 28 28 28 27 28 28 28 28 28 27 27 27 27 27 27 26 27 28 30 30 31 32 33 33 32 32 31
26 26 27 27 27 27 26 27 27 27 27 26 27 27 27 26 27 27 26 26 26 26 26 26 26 26 26 26 27 29 30 30 30 31 30 29 29 30
25 25 25 25 25 25 25 25 25 26 25 24 24 24 24 24 25 25 24 24 25 25 25 25 25 25 26 26 27 28 28 28 28 28 27 27 27 27
23 23 23 23 23 24 24 24 23 23 23 22 23 23 22 22 22 23 23 23 23 24 24 25 24 24 24 25 25 25 25 26 26 26 26 26 26 25
22 22 22 22 22 22 22 22 22 22 22 22 22 22 22 22 21 22 21 22 22 22 23 23 23 23 22 22 23 23 23 23 23 23 23 23 24 24
20 20 21 21 21 21 21 22 21 21 21 21 21 21 20 20 20 20 20 20 20 20 20 20 20 21 21 21 22 22 22 22 22 22 22 22 23 23
18 18 18 19 19 19 18 19 19 19 19 20 20 20 19 18 18 17 17 17 17 18 18 18 19 20 20 20 21 21 21 21 21 21 21 21 21 22
16 15 15 14 14 14 14 15 15 15 16 16 17 17 17 16 16 16 15 16 16 16 17 17 17 18 18 19 19 19 18 18 18 18 19 20 20 21
12 12 11 11 11 11 11 11 12 13 13 13 13 14 13 14 13 14 14 15 14 14 14 14 14 15 15 16 15 15 15 15 16 16 17 18 19 19
9 9 9 9 9 9 9 9 9 9 10 10 10 10 10 10 10 10 10 10 9 10 9 10 11 12 12 12 12 12 14 15 15 14 15 17 18 18
8 8 7 6 6 7 7 6 6 6 7 7 7 7 7 7 7 6 6 6 6 7 8 9 9 9 10 10 11 12 13 13 13 14 15 17 18 19
7 6 5 4 4 4 4 4 4 4 4 5 5 5 5 5 4 4 5 5 5 6 7 7 8 9 9 10 11 12 12 12 13 14 15 16 17 18
5 4 4 2 1 1 0 1 2 2 2 3 3 2 2 2 2 2 2 2 3 4 6 7 8 8 9 10 10 10 11 12 13 14 15 15 16 17
5 4 4 4 4 4 4 3 3 3 4 3 2 2 2 1 1 0 1 2 3 4 5 6 8 9 10 11 11 11 11 12 13 14 15 16 16 17
7 6 6 7 7 6 6 6 6 5 5 4 3 2 2 2 1 1 1 2 3 4 6 8 9 10 11 11 11 12 12 13 14 15 15 16 17 19
9 9 8 8 8 8 7 7 6 6 5 5 4 4 3 2 1 1 2 2 4 6 7 9 10 11 12 11 12 12 13 14 15 16 17 18 19 20
9 9 9 8 8 8 8 7 7 6 5 5 5 4 4 3 3 3 3 5 6 7 8 9 11 11 12 12 13 14 15 16 17 18 19 20 21 22
10 9 9 8 8 8 7 7 6 6 6 5 5 5 4 4 4 5 5 6 7 9 10 11 11 12 13 14 15 16 17 18 19 20 20 21 21 22
10 9 9 9 8 8 7 7 6 6 6 6 5 5 5 5 5 6 7 8 9 10 11 12 13 14 16 17 17 18 19 20 20 21 21 22 23 24
9 9 9 8 7 7 7 7 7 6 6 6 5 5 6 6 6 7 8 10 11 12 13 15 16 17 18 18 19 19 20 21 22 23 24 25 26 27
8 9 9 8 8 7 7 6 6 6 5 5 5 6 6 7 8 9 10 11 12 14 15 16 17 18 19 20 20 21 22 22 24 25 26 28 29 30
7 7 7 7 7 6 6 6 6 5 5 5 6 7 8 9 10 11 12 13 15 16 18 18 19 20 21 21 22 23 24 25 26 27 28 30 32 33
Wind_Direction
275 274 273 273 272 272 272 271 271 271 272 273 272 274 274 274 274 273 273 272 273 273 273 272 272 273 273 272 272 271 270 270 269 267 268 269 271 271
276 275 275 274 273 272 271 270 270 269 270 272 271 272 274 275 275 274 275 274 275 274 274 274 274 274 275 273 271 269 269 270 271 269 269 270 268 269
278 276 275 274 273 273 270 268 268 268 268 269 271 271 273 275 275 274 275 273 274 273 274 274 274 274 273 275 273 271 270 272 272 272 271 268 267 268
279 278 276 275 273 271 269 269 268 267 266 267 269 270 272 275 275 274 273 272 272 273 273 274 275 274 273 273 273 273 274 274 274 275 272 270 270 270
281 279 278 277 275 271 270 269 267 265 265 265 267 269 270 274 275 273 272 272 273 273 272 273 275 275 275 276 276 275 276 275 273 273 274 273 274 275
283 279 278 277 274 271 269 267 266 265 264 263 265 266 268 269 273 272 270 270 272 272 271 272 274 275 277 278 277 277 277 277 276 275 274 276 276 277
284 281 278 276 273 271 269 267 265 263 262 261 262 265 267 269 271 273 269 269 271 272 272 273 274 274 276 278 279 279 278 277 276 276 275 276 276 276
286 284 280 277 275 273 270 266 262 260 260 260 261 265 267 268 270 273 270 268 270 272 273 274 275 275 277 278 278 277 277 276 275 275 274 274 275 276
289 286 284 279 275 274 272 268 264 260 257 257 261 263 265 267 267 269 269 268 269 272 272 273 276 277 277 278 279 278 277 277 276 276 276 277 278 279
294 289 284 279 275 273 272 267 260 258 257 258 260 262 263 262 264 268 268 267 268 271 274 275 276 279 282 281 279 278 279 280 281 282 282 283 284 284
301 294 290 284 276 274 272 264 256 253 252 253 256 258 260 263 264 268 265 264 267 272 273 278 281 285 288 288 287 287 287 285 283 283 284 285 286 287
312 307 301 291 280 275 274 264 254 247 243 247 253 255 257 254 250 252 254 259 269 276 278 284 291 293 296 295 294 293 293 290 287 287 288 289 290 290
327 323 319 303 291 283 276 265 244 235 236 237 238 237 237 233 240 252 262 267 274 282 286 292 299 303 304 302 299 297 295 294 295 295 294 294 294 292
354 353 354 351 341 334 282 211 193 192 199 192 190 200 217 217 235 257 262 263 286 293 297 301 307 308 309 308 306 304 302 300 299 297 296 296 296 295
19 26 36 55 66 78 92 114 130 135 141 145 146 142 128 119 77 189 259 280 293 303 305 309 312 317 316 313 313 311 309 306 307 305 303 302 301 301
51 53 60 70 78 81 83 94 101 109 112 114 115 111 104 99 89 307 305 313 318 324 322 321 321 323 321 319 316 314 313 312 312 310 309 306 304 302
63 64 70 78 82 81 84 90 93 93 96 96 91 92 94 89 59 7 356 351 340 333 330 327 325 324 323 322 320 316 314 314 312 311 309 307 306 303
62 64 69 73 73 79 82 83 84 88 92 90 82 79 68 59 48 32 10 352 343 341 338 333 330 329 329 326 322 320 318 316 313 311 310 310 308 307
62 63 62 62 72 78 80 83 84 81 78 73 68 61 51 40 27 14 3 355 349 342 338 335 334 333 330 327 323 320 318 317 315 313 313 313 312 310
59 62 65 66 67 69 70 72 76 75 67 64 61 46 35 25 13 4 357 349 343 340 337 335 333 331 328 326 324 321 318 317 317 316 314 314 314 313
59 60 61 60 59 61 63 65 65 61 52 45 39 29 20 10 0 352 346 341 338 335 334 332 329 326 325 324 323 322 319 318 318 317 316 315 314 313
51 54 56 53 51 54 56 55 51 46 38 29 21 12 4 356 347 341 337 336 334 332 329 327 325 324 323 322 322 321 320 319 319 318 317 316 316 315
41 42 43 43 44 45 44 42 37 29 18 7 358 351 346 340 336 333 332 331 330 328 327 327 326 324 323 322 321 321 321 320 319 318 317 316 315 315
Height
5766 5766 5766 5766 5767 5767 5768 5769 5771 5772 5773 5773 5774 5774 5775 5775 5776 5777 5778 5779 5780 5781 5782 5782 5783 5784 5784 5785 5785 5785 5786 5787 5787 5788 5788 5788 5788 5789
5758 5758 5758 5759 5759 5760 5760 5761 5762 5764 5764 5765 5766 5767 5767 5768 5768 5770 5771 5772 5772 5773 5774 5775 5776 5776 5777 5777 5778 5778 5778 5779 5779 5779 5779 5780 5780 5780
5750 5750 5751 5751 5751 5752 5753 5753 5754 5756 5757 5758 5758 5759 5760 5761 5762 5762 5763 5764 5765 5766 5767 5768 5769 5769 5769 5770 5771 5771 5771 5771 5771 5771 5771 5772 5772 5773
5743 5743 5743 5743 5744 5744 5745 5746 5747 5748 5750 5751 5752 5753 5754 5754 5755 5756 5757 5758 5759 5759 5760 5761 5761 5762 5762 5763 5763 5764 5764 5764 5764 5764 5764 5765 5764 5764
5736 5736 5736 5736 5737 5737 5738 5739 5740 5741 5743 5744 5745 5746 5747 5748 5749 5749 5750 5751 5752 5753 5753 5754 5754 5755 5755 5755 5756 5756 5756 5757 5757 5757 5757 5757 5757 5757
5730 5729 5729 5730 5730 5730 5731 5732 5733 5734 5736 5737 5739 5740 5741 5741 5742 5743 5744 5745 5746 5747 5747 5748 5748 5748 5748 5748 5749 5749 5749 5749 5749 5750 5750 5750 5750 5750
5724 5723 5723 5723 5723 5724 5724 5725 5727 5728 5729 5731 5732 5733 5734 5735 5736 5737 5738 5739 5740 5740 5741 5741 5742 5742 5742 5742 5742 5742 5742 5742 5742 5742 5743 5743 5743 5742
5718 5718 5717 5717 5717 5718 5718 5719 5720 5722 5723 5725 5726 5727 5728 5729 5730 5731 5732 5733 5734 5735 5736 5736 5736 5736 5736 5736 5736 5735 5735 5735 5736 5736 5736 5736 5736 5735
5714 5713 5712 5712 5712 5713 5713 5714 5715 5716 5718 5720 5721 5722 5723 5724 5725 5726 5727 5728 5730 5730 5731 5731 5731 5730 5730 5730 5729 5729 5729 5729 5729 5729 5729 5729 5729 5728
5710 5709 5708 5708 5708 5708 5709 5709 5710 5712 5713 5715 5717 5718 5719 5720 5721 5722 5723 5724 5725 5725 5725 5726 5726 5725 5725 5725 5724 5724 5724 5723 5723 5723 5723 5723 5723 5722
5707 5706 5705 5705 5705 5705 5705 5706 5707 5708 5710 5712 5713 5714 5715 5716 5717 5718 5719 5720 5721 5721 5722 5722 5722 5721 5721 5720 5720 5720 5719 5719 5718 5718 5718 5717 5717 5716
5705 5704 5703 5703 5702 5703 5703 5704 5705 5706 5707 5709 5710 5711 5712 5713 5714 5715 5716 5717 5718 5719 5719 5719 5718 5718 5718 5717 5716 5715 5715 5714 5713 5713 5713 5712 5711 5710
5703 5703 5702 5701 5701 5701 5702 5702 5703 5705 5706 5707 5709 5710 5711 5712 5712 5713 5714 5715 5716 5716 5716 5716 5716 5715 5714 5714 5713 5712 5711 5710 5709 5708 5707 5707 5705 5704
5703 5702 5701 5701 5701 5701 5701 5702 5703 5704 5706 5707 5708 5709 5710 5710 5711 5712 5713 5713 5714 5714 5714 5714 5713 5713 5712 5711 5710 5709 5707 5706 5705 5704 5703 5701 5700 5698
5704 5703 5702 5702 5701 5702 5702 5702 5703 5705 5706 5707 5708 5709 5710 5710 5711 5712 5712 5712 5713 5713 5712 5712 5711 5711 5709 5708 5707 5705 5704 5702 5701 5699 5698 5696 5695 5693
5705 5705 5704 5703 5703 5704 5704 5705 5705 5706 5707 5708 5708 5709 5710 5710 5711 5711 5711 5712 5712 5712 5711 5710 5709 5708 5707 5705 5704 5702 5700 5699 5697 5695 5693 5692 5689 5687
5708 5707 5707 5707 5707 5707 5707 5707 5708 5708 5709 5709 5710 5710 5710 5711 5711 5711 5711 5711 5711 5710 5710 5709 5707 5705 5704 5702 5701 5699 5697 5695 5693 5691 5689 5686 5684 5682
5711 5710 5710 5710 5710 5710 5710 5710 5710 5710 5711 5711 5711 5711 5711 5712 5712 5711 5711 5711 5710 5709 5708 5707 5705 5704 5702 5700 5698 5695 5693 5691 5689 5686 5683 5681 5679 5676
5714 5714 5713 5713 5713 5712 5713 5712 5712 5712 5712 5712 5712 5712 5712 5712 5712 5711 5711 5710 5709 5708 5707 5705 5703 5701 5699 5697 5695 5691 5689 5686 5683 5681 5678 5675 5672 5669
5718 5717 5716 5716 5715 5715 5715 5715 5714 5714 5714 5714 5714 5714 5713 5713 5712 5711 5710 5709 5708 5706 5705 5702 5700 5698 5695 5693 5690 5688 5684 5681 5678 5675 5672 5669 5666 5662
5721 5720 5720 5719 5718 5718 5717 5717 5717 5716 5716 5715 5715 5714 5714 5713 5712 5711 5709 5708 5706 5704 5702 5700 5697 5694 5691 5688 5686 5683 5679 5676 5672 5669 5665 5662 5659 5655
5725 5723 5722 5722 5721 5720 5719 5719 5718 5718 5717 5716 5716 5715 5714 5712 5711 5710 5708 5706 5704 5701 5699 5696 5693 5690 5687 5684 5681 5678 5674 5671 5667 5662 5658 5654 5650 5646
5727 5726 5725 5724 5723 5722 5721 5721 5720 5719 5718 5717 5716 5715 5713 5711 5710 5708 5706 5703 5701 5698 5695 5692 5689 5685 5682 5678 5675 5672 5668 5664 5660 5656 5652 5647 5642 5637